+ View the NASA Portal
+ Center for Near-Earth Object Studies
IMPORTANT:
The SSD Announcement email list is now available. Major changes are coming in the near future, including possible hostname and/or URL changes. To be notified of such changes, subscribe to this email list.
Please visit
this page
for more details.
Don't show this message again
JPL Small-Body Database Browser
Search:
[
help
]
2849 Shklovskij (1976 GN3)
Classification:
Main-belt Asteroid
SPK-ID:
2002849
[
Ephemeris
|
Orbit Diagram
|
Orbital Elements
|
Mission Design
|
Physical Parameters
|
Discovery Circumstances
|
Close-Approach Data
]
[ show orbit diagram ]
Orbital Elements at Epoch 2458600.5 (2019-Apr-27.0) TDB
Reference:
JPL 33
(heliocentric ecliptic J2000)
Element
Value
Uncertainty (1-sigma)
Units
e
.009179712161884171
3.7038e-08
a
2.565872539147515
1.0001e-08
au
q
2.542318567794058
9.52e-08
au
i
6.810837573434467
4.2268e-06
deg
node
44.05176014488822
3.1731e-05
deg
peri
298.794686705346
0.00021801
deg
M
32.58011448413588
0.00021625
deg
t
p
2458464.637015542557
(2018-Dec-12.13701554)
0.00090171
TDB
period
1501.243171766485
4.11
8.7769e-06
2.403e-08
d
yr
n
.239801257231628
1.402e-09
deg/d
Q
2.589426510500972
1.0093e-08
au
Orbit Determination Parameters
# obs. used (total)
3216
data-arc span
18823 days (51.53 yr)
first obs. used
1968-05-22
last obs. used
2019-12-04
planetary ephem.
DE431
SB-pert. ephem.
SB431-N16
condition code
0
norm. resid. RMS
.40274
source
ORB
producer
Otto Matic
solution date
2019-Dec-13 21:21:21
Additional Information
Earth MOID
= 1.54218 au
Jupiter MOID
= 2.41232 au
T_jup
= 3.422
[ show covariance matrix ]
[
Ephemeris
|
Orbit Diagram
|
Orbital Elements
|
Mission Design
|
Physical Parameters
|
Discovery Circumstances
|
Close-Approach Data
]
Physical Parameter Table
Parameter
Symbol
Value
Units
Sigma
Reference
Notes
absolute magnitude
H
13.0
n/a
MPO452202
diameter
diameter
13.534
km
0.116
urn:nasa:pds:neowise_diameters_albedos::2.0[mainbelt] (http://adsabs.harvard.edu/abs/2011ApJ...741...68M)
geometric albedo
albedo
0.061
0.013
urn:nasa:pds:neowise_diameters_albedos::2.0[mainbelt] (http://adsabs.harvard.edu/abs/2011ApJ...741...68M)
2849 Shklovskij (1976 GN3)
Discovered 1976-Apr-01 by Chernykh, N. at Nauchnyj
Reference:
DISCOVERY.DB
Last Updated:
2003-08-29
[ show close-approach data ]
Alternate Designations
1976 GN3
= 1968 KE = 1972 HA = 1980 GU
[
Ephemeris
|
Orbit Diagram
|
Orbital Elements
|
Mission Design
|
Physical Parameters
|
Discovery Circumstances
|
Close-Approach Data
]
2019-Dec-15 05:34 UT
(server date/time)
Site Manager:
Ryan S. Park
Webmaster
:
Alan B. Chamberlin